Location: Crayja
(6.2254°N, 10.6273°W)
Time: 14:49:23
(UTC+00:00)

SWIFT - Pass Details

Date: 17 February 2020
Orbit: 545 x 560 km, 20.6° (Epoch: 04 April)

Event Time Altitude Azimuth Distance (km) Brightness Sun altitude
Exits shadow 05:48:56 13° 346° (NNW) 1,629 4.5 -17.8°
Maximum altitude 05:49:23 13° 353° (N) 1,619 4.5 -17.7°
Drops below altitude 10° 05:51:26 10° 22° (NNE) 1,817 5.1 -17.2°
Sets 05:54:49 0° 50° (NE) 2,714 6.4 -16.3°
